DW0148 Weather Reports


time (UTC)temp
F
wind
direction
speed
knots
gust
knots
rain 1hr
in
rain 24hr
in
rain mn
in
humidity
%
barometer
mb
20171121205254 59 187 1.7 3.5 0.00 0.01 0.01 68 1018.8
20171121204753 59 179 1.7 5.2 0.00 0.01 0.01 68 1018.8
20171121204252 59 165 0.9 5.2 0.00 0.01 0.01 68 1018.8
20171121203751 59 123 0.9 5.2 0.00 0.01 0.01 69 1018.8
20171121203250 58 186 3.5 5.2 0.00 0.01 0.01 69 1018.8
20171121202750 58 138 0.0 3.5 0.00 0.01 0.01 70 1018.8
20171121202249 58 162 0.9 4.3 0.00 0.01 0.01 70 1018.8
20171121201748 58 102 0.9 4.3 0.00 0.01 0.01 68 1019.1
20171121201247 58 70 1.7 4.3 0.00 0.01 0.01 68 1019.1
20171121200746 58 135 0.9 5.2 0.00 0.01 0.01 69 1019.1
20171121200245 58 71 2.6 5.2 0.00 0.01 0.01 68 1019.1
20171121195744 58 158 1.7 7.0 0.00 0.01 0.01 68 1019.1
20171121195244 58 89 1.7 7.0 0.00 0.01 0.01 68 1019.1
20171121194743 58 118 1.7 4.3 0.00 0.01 0.01 68 1019.5
20171121194242 57 122 0.9 5.2 0.00 0.01 0.01 69 1019.5
20171121193741 57 53 2.6 5.2 0.00 0.01 0.01 70 1019.5
20171121193240 57 169 2.6 7.0 0.00 0.01 0.01 70 1019.5
20171121192739 56 141 1.7 7.0 0.00 0.01 0.01 70 1019.5
20171121192238 56 182 2.6 4.3 0.00 0.01 0.01 70 1019.8
20171121191736 56 178 1.7 3.5 0.00 0.01 0.01 70 1019.8
20171121191235 56 198 1.7 4.3 0.00 0.01 0.01 70 1020.1
20171121190734 56 185 1.7 4.3 0.00 0.01 0.01 71 1020.1
20171121190233 55 224 0.9 5.2 0.00 0.01 0.01 70 1020.1
20171121185732 55 166 2.6 5.2 0.00 0.01 0.01 71 1020.1
20171121185231 55 139 2.6 7.0 0.00 0.01 0.01 71 1020.5
20171121184730 55 192 3.5 7.0 0.00 0.01 0.01 71 1020.1
20171121184229 55 208 0.9 5.2 0.00 0.01 0.01 71 1020.1
20171121183728 54 191 1.7 5.2 0.00 0.01 0.01 71 1020.1
20171121183228 54 218 0.9 3.5 0.00 0.01 0.01 70 1020.5
20171121182726 54 203 0.9 1.7 0.00 0.01 0.01 72 1020.5
20171121182226 54 166 0.9 2.6 0.00 0.01 0.01 71 1020.5
20171121181725 54 222 0.9 2.6 0.00 0.01 0.01 71 1020.8
20171121181224 54 249 0.9 1.7 0.00 0.01 0.01 71 1020.8
20171121180724 54 235 0.0 2.6 0.00 0.01 0.01 71 1020.8
20171121180222 54 203 0.0 2.6 0.00 0.01 0.01 70 1020.8
20171121175721 54 224 0.0 2.6 0.00 0.01 0.01 70 1021.2
20171121175220 54 195 1.7 3.5 0.00 0.01 0.01 70 1021.2
20171121174719 55 180 1.7 3.5 0.00 0.01 0.01 68 1021.2
20171121174218 54 250 0.9 3.5 0.00 0.01 0.01 69 1021.2
20171121173717 54 170 1.7 3.5 0.00 0.01 0.01 70 1021.2
20171121173216 54 226 0.0 2.6 0.00 0.01 0.01 70 1021.5
20171121172715 54 219 0.9 3.5 0.00 0.01 0.01 70 1021.5
20171121172214 54 264 2.6 3.5 0.00 0.01 0.01 70 1021.5
20171121171713 53 228 1.7 2.6 0.00 0.01 0.01 70 1021.5
20171121171212 53 235 0.0 4.3 0.00 0.01 0.01 71 1021.8
20171121170640 52 214 0.9 4.3 0.00 0.01 0.01 71 1021.8
20171121170139 53 177 1.7 4.3 0.00 0.01 0.01 69 1021.8
20171121165608 53 175 2.6 4.3 0.00 0.01 0.01 69 1021.8
20171121165107 53 210 1.7 3.5 0.00 0.01 0.01 69 1021.8
20171121164606 53 229 1.7 4.3 0.00 0.01 0.01 69 1021.8
20171121164105 53 237 0.9 4.3 0.00 0.01 0.01 70 1021.8
20171121163604 52 222 0.9 5.2 0.00 0.01 0.01 71 1021.8
20171121163103 51 215 1.7 5.2 0.00 0.01 0.01 72 1021.8
20171121162602 51 232 0.9 3.5 0.00 0.01 0.01 72 1021.8
20171121162101 51 215 0.9 3.5 0.00 0.01 0.01 71 1022.2
20171121161601 51 233 1.7 3.5 0.00 0.01 0.01 70 1022.2
20171121161100 51 228 0.9 3.5 0.00 0.01 0.01 71 1022.2
20171121160559 51 248 1.7 3.5 0.00 0.01 0.01 71 1022.2
20171121160058 50 223 0.9 2.6 0.00 0.01 0.01 73 1022.2
20171121155558 50 215 0.9 2.6 0.00 0.01 0.01 73 1022.2
20171121155057 50 210 0.9 2.6 0.00 0.01 0.01 73 1022.5
20171121154556 49 221 0.0 2.6 0.00 0.01 0.01 73 1022.5
20171121154055 49 149 0.9 4.3 0.00 0.01 0.01 72 1022.5
20171121153554 49 67 1.7 4.3 0.00 0.01 0.01 74 1022.5
20171121153054 48 287 0.0 3.5 0.01 0.01 0.01 74 1022.5
20171121152552 48 185 0.9 5.2 0.01 0.01 0.01 73 1022.5
20171121152021 48 50 1.7 5.2 0.01 0.01 0.01 74 1022.5
20171121151519 48 65 2.6 7.0 0.01 0.01 0.01 74 1022.9
20171121151019 48 168 3.5 7.0 0.01 0.01 0.01 73 1023.2
20171121150518 48 179 1.7 2.6 0.01 0.01 0.01 74 1022.9
20171121150016 47 150 1.7 3.5 0.01 0.01 0.01 74 1022.9
20171121145516 47 179 1.7 3.5 0.01 0.01 0.01 76 1022.9
20171121145015 46 139 0.9 2.6 0.01 0.01 0.01 77 1023.2
20171121144514 46 157 0.9 2.6 0.01 0.01 0.01 75 1023.2
20171121144014 45 190 0.0 0.9 0.01 0.01 0.01 77 1022.9
20171121143513 45 190 0.0 0.9 0.00 0.00 0.00 81 1022.9
20171121143012 44 149 0.9 0.9 0.00 0.00 0.00 81 1022.9
20171121142511 43 109 0.9 0.9 0.00 0.00 0.00 86 1022.9
20171121142010 42 96 0.0 0.9 0.00 0.00 0.00 86 1022.9
20171121141509 42 96 0.0 0.0 0.00 0.00 0.00 86 1022.9
20171121141008 41 96 0.0 0.0 0.00 0.00 0.00 87 1022.5
20171121140436 40 96 0.0 0.0 0.00 0.00 0.00 89 1022.9
20171121135936 40 96 0.0 0.0 0.00 0.00 0.00 91 1022.9
20171121135404 39 96 0.0 0.9 0.00 0.00 0.00 90 1022.9
20171121134903 39 96 0.0 1.7 0.00 0.00 0.00 90 1022.9
20171121134331 39 96 0.0 1.7 0.00 0.00 0.00 91 1022.9
20171121133830 38 73 0.0 2.6 0.00 0.00 0.00 91 1022.9
20171121133329 38 74 1.7 2.6 0.00 0.00 0.00 93 1022.5
20171121132828 37 74 0.0 2.6 0.00 0.00 0.00 94 1022.9
20171121132327 37 73 0.9 2.6 0.00 0.00 0.00 95 1022.9
20171121131826 36 75 0.0 0.9 0.00 0.00 0.00 95 1022.9
20171121131325 35 75 0.0 0.9 0.00 0.00 0.00 95 1022.9
20171121130753 35 75 0.9 0.9 0.00 0.00 0.00 95 1022.9
20171121130253 34 75 0.0 0.0 0.00 0.00 0.00 95 1023.2
20171121125752 34 75 0.0 0.9 0.00 0.00 0.00 95 1023.2
20171121125252 33 75 0.0 0.9 0.00 0.00 0.00 95 1023.2
20171121124750 33 75 0.0 0.9 0.00 0.00 0.00 95 1023.2
20171121124249 32 75 0.0 0.9 0.00 0.00 0.00 95 1023.2
20171121123748 32 75 0.0 0.0 0.00 0.00 0.00 95 1023.2
20171121123216 32 75 0.0 0.9 0.00 0.00 0.00 95 1023.2
20171121122716 32 75 0.0 0.9 0.00 0.00 0.00 95 1023.2
20171121122215 31 75 0.0 0.9 0.00 0.00 0.00 95 1022.9
20171121121714 31 75 0.0 0.9 0.00 0.00 0.00 94 1022.9
20171121121213 31 75 0.9 0.9 0.00 0.00 0.00 94 1022.5
20171121120641 31 75 0.0 0.9 0.00 0.00 0.00 94 1022.5
20171121120141 31 75 0.0 0.9 0.00 0.00 0.00 94 1022.5
20171121115640 31 75 0.9 0.9 0.00 0.00 0.00 94 1022.5
20171121115139 31 75 0.9 0.9 0.00 0.00 0.00 94 1022.5
20171121114606 31 75 0.9 0.9 0.00 0.00 0.00 94 1022.5
20171121114035 31 75 0.9 0.9 0.00 0.00 0.00 94 1022.9
20171121113533 31 75 0.0 0.9 0.00 0.00 0.00 94 1022.9
20171121113033 31 75 0.0 2.6 0.00 0.00 0.00 94 1022.9
20171121112531 31 75 1.7 2.6 0.00 0.00 0.00 94 1022.9
20171121111959 32 92 0.9 0.9 0.00 0.00 0.00 94 1022.5
20171121111356 31 94 0.9 0.9 0.00 0.00 0.00 94 1022.9
20171121110855 31 26 0.9 0.9 0.00 0.00 0.00 94 1022.9
20171121110354 31 26 0.0 0.9 0.00 0.00 0.00 94 1022.9
20171121105854 31 26 0.0 0.9 0.00 0.00 0.00 94 1022.9
20171121105353 32 26 0.0 0.9 0.00 0.00 0.00 94 1022.9
20171121104852 32 26 0.0 0.0 0.00 0.00 0.00 94 1022.9
20171121104351 32 26 0.0 0.0 0.00 0.00 0.00 94 1022.9
20171121103850 31 26 0.0 0.0 0.00 0.00 0.00 94 1022.9
20171121103349 31 26 0.0 0.9 0.00 0.00 0.00 94 1022.5
20171121102817 31 26 0.0 0.9 0.00 0.00 0.00 94 1022.5
20171121102225 31 26 0.0 0.9 0.00 0.00 0.00 94 1022.5
20171121101724 31 23 0.9 0.9 0.00 0.00 0.00 94 1022.5
20171121101223 31 358 0.0 0.0 0.00 0.00 0.00 94 1022.5
20171121100722 31 359 0.0 0.9 0.00 0.00 0.00 94 1022.5
20171121100220 31 359 0.0 0.9 0.00 0.00 0.00 94 1022.5
20171121095719 31 359 0.0 0.9 0.00 0.00 0.00 94 1022.5
20171121095218 31 359 0.0 0.9 0.00 0.00 0.00 94 1022.5
20171121094718 31 72 0.0 0.9 0.00 0.00 0.00 94 1022.5
20171121094217 31 72 0.0 0.9 0.00 0.00 0.00 94 1022.9
20171121093715 31 72 0.0 0.9 0.00 0.00 0.00 94 1022.5
20171121093215 31 72 0.0 0.9 0.00 0.00 0.00 94 1022.9
20171121092713 31 72 0.0 0.9 0.00 0.00 0.00 94 1022.9
20171121092213 31 72 0.0 0.9 0.00 0.00 0.00 94 1022.9
20171121091711 31 72 0.9 0.9 0.00 0.00 0.00 93 1022.9
20171121091211 31 72 0.0 0.9 0.00 0.00 0.00 93 1022.9
20171121090709 31 72 0.0 0.9 0.00 0.00 0.00 93 1022.9
20171121090207 31 72 0.0 0.9 0.00 0.00 0.00 93 1022.9
20171121085706 31 70 0.9 0.9 0.00 0.00 0.00 93 1023.2
20171121085205 31 90 0.0 0.9 0.00 0.00 0.00 93 1023.2
20171121084704 31 91 0.0 0.9 0.00 0.00 0.00 93 1023.2
20171121084203 31 90 0.9 0.9 0.00 0.00 0.00 93 1023.2
20171121083702 31 91 0.0 2.6 0.00 0.00 0.00 93 1023.2
20171121083159 31 90 0.9 2.6 0.00 0.00 0.00 93 1023.2
20171121082659 31 86 0.9 2.6 0.00 0.00 0.00 93 1023.2
20171121082157 30 87 0.9 2.6 0.00 0.00 0.00 94 1023.2
20171121081657 30 77 0.9 0.9 0.00 0.00 0.00 94 1023.2
20171121081156 30 75 0.9 0.9 0.00 0.00 0.00 94 1023.2
20171121080654 30 23 0.0 0.9 0.00 0.00 0.00 93 1023.2
20171121080152 30 23 0.9 0.9 0.00 0.00 0.00 93 1023.2
20171121075651 30 23 0.9 0.9 0.00 0.00 0.00 93 1023.2
20171121075150 30 98 0.0 0.9 0.00 0.00 0.00 93 1023.2
20171121074649 30 99 0.0 0.9 0.00 0.00 0.00 93 1023.2
20171121074147 30 97 0.9 0.9 0.00 0.00 0.00 93 1023.2
20171121073646 30 87 0.9 2.6 0.00 0.00 0.00 93 1023.5
20171121073144 30 81 0.9 2.6 0.00 0.00 0.00 93 1023.2
20171121072643 30 80 0.0 0.9 0.00 0.00 0.00 93 1023.5
20171121072142 30 80 0.0 0.9 0.00 0.00 0.00 93 1023.5
20171121071642 30 80 0.0 0.9 0.00 0.00 0.00 93 1023.5
20171121071141 30 63 0.9 0.9 0.00 0.00 0.00 93 1023.5
20171121070640 30 13 0.0 0.9 0.00 0.00 0.00 93 1023.5
20171121070138 30 13 0.9 0.9 0.00 0.00 0.00 93 1023.5
20171121065638 30 8 0.9 0.9 0.00 0.00 0.00 93 1023.5
20171121065137 30 347 0.9 0.9 0.00 0.00 0.00 93 1023.5
20171121064636 30 80 0.0 0.9 0.00 0.00 0.00 93 1023.5
20171121064135 30 82 0.0 0.9 0.00 0.00 0.00 93 1023.5
20171121063634 30 70 0.9 0.9 0.00 0.00 0.00 93 1023.9
20171121063133 30 37 0.9 0.9 0.00 0.00 0.00 93 1023.9
20171121062632 30 37 0.0 1.7 0.00 0.00 0.00 93 1023.9
20171121062131 31 37 0.0 1.7 0.00 0.00 0.00 93 1023.9
20171121061630 31 37 0.9 2.6 0.00 0.00 0.00 93 1023.5
20171121061130 30 36 0.9 2.6 0.00 0.00 0.00 93 1023.5
20171121060629 30 80 0.9 0.9 0.00 0.00 0.00 92 1023.5
20171121060128 31 80 0.9 0.9 0.00 0.00 0.00 92 1023.5
20171121055627 31 81 0.9 0.9 0.00 0.00 0.00 93 1023.5
20171121055126 31 80 0.0 0.9 0.00 0.00 0.00 93 1023.9
20171121054626 31 81 0.0 0.9 0.00 0.00 0.00 92 1023.9
20171121054125 31 80 0.0 0.9 0.00 0.00 0.00 93 1023.9
20171121053625 31 80 0.9 0.9 0.00 0.00 0.00 93 1023.9
20171121053123 31 80 0.0 0.0 0.00 0.00 0.00 92 1023.9
20171121052622 31 80 0.0 0.9 0.00 0.00 0.00 93 1023.9
20171121052121 31 80 0.0 0.9 0.00 0.00 0.00 92 1023.9
20171121051620 31 80 0.0 0.9 0.00 0.00 0.00 93 1023.9
20171121051119 31 80 0.0 0.9 0.00 0.00 0.00 93 1023.9
20171121050618 31 80 0.9 0.9 0.00 0.00 0.00 93 1023.9
20171121050118 31 80 0.0 0.9 0.00 0.00 0.00 93 1023.9
20171121045617 31 80 0.0 0.9 0.00 0.00 0.00 92 1023.9
20171121045116 31 80 0.0 0.9 0.00 0.00 0.00 92 1023.9
20171121044615 31 81 0.0 0.9 0.00 0.00 0.00 92 1023.9
20171121044115 31 80 0.0 0.9 0.00 0.00 0.00 92 1023.9
20171121043614 31 80 0.9 0.9 0.00 0.00 0.00 92 1023.9
20171121043113 31 80 0.0 0.9 0.00 0.00 0.00 92 1023.5
20171121042613 31 80 0.0 0.0 0.00 0.00 0.00 92 1023.5
20171121042108 31 80 0.0 0.0 0.00 0.00 0.00 92 1023.5
20171121041606 31 80 0.0 0.0 0.00 0.00 0.00 92 1023.9
20171121041105 31 80 0.0 0.9 0.00 0.00 0.00 91 1023.9
20171121040604 32 80 0.0 0.9 0.00 0.00 0.00 91 1023.5
20171121040102 32 80 0.0 0.9 0.00 0.00 0.00 91 1023.9
20171121035601 32 81 0.0 0.9 0.00 0.00 0.00 91 1023.5
20171121035100 32 81 0.0 0.9 0.00 0.00 0.00 91 1023.5
20171121034559 32 80 0.9 0.9 0.00 0.00 0.00 91 1023.5
20171121034057 32 80 0.0 0.9 0.00 0.00 0.00 91 1023.5
20171121033556 32 80 0.0 0.9 0.00 0.00 0.00 91 1023.9
20171121033056 32 80 0.0 0.9 0.00 0.00 0.00 91 1023.5
20171121032555 33 81 0.9 0.9 0.00 0.00 0.00 90 1023.9
20171121032054 33 80 0.0 0.9 0.00 0.00 0.00 90 1023.9
20171121031553 33 80 0.9 0.9 0.00 0.00 0.00 91 1023.9
20171121031053 33 80 0.0 0.9 0.00 0.00 0.00 91 1023.9
20171121030551 33 80 0.0 0.9 0.00 0.00 0.00 91 1023.9
20171121030050 33 80 0.0 0.9 0.00 0.00 0.00 91 1023.9
20171121025550 33 80 0.9 0.9 0.00 0.00 0.00 92 1023.9
20171121025048 32 80 0.9 0.9 0.00 0.00 0.00 91 1023.9
20171121024548 33 81 0.9 0.9 0.00 0.00 0.00 91 1023.9
20171121024047 33 80 0.9 0.9 0.00 0.00 0.00 91 1023.9
20171121023546 33 80 0.9 0.9 0.00 0.00 0.00 91 1023.9
20171121023045 33 80 0.0 0.9 0.00 0.00 0.00 91 1023.9
20171121022544 33 80 0.0 0.9 0.00 0.00 0.00 90 1023.9
20171121022043 33 80 0.0 0.9 0.00 0.00 0.00 89 1023.9
20171121021542 33 80 0.0 0.9 0.00 0.00 0.00 90 1023.9
20171121021041 33 80 0.0 0.9 0.00 0.00 0.00 90 1023.9
20171121020539 33 80 0.0 0.9 0.00 0.00 0.00 90 1023.9
20171121020039 33 80 0.0 0.9 0.00 0.00 0.00 90 1023.9
20171121015536 33 80 0.0 0.9 0.00 0.00 0.00 90 1023.5
20171121015035 34 80 0.9 0.9 0.00 0.00 0.00 90 1023.5
20171121014534 34 80 0.0 0.0 0.00 0.00 0.00 89 1023.9
20171121014033 34 81 0.0 0.9 0.00 0.00 0.00 88 1023.9
20171121013532 34 80 0.0 0.9 0.00 0.00 0.00 88 1023.9
20171121013031 34 80 0.0 0.9 0.00 0.00 0.00 88 1023.5
20171121012530 34 80 0.0 0.9 0.00 0.00 0.00 88 1023.5
20171121012029 35 80 0.0 0.9 0.00 0.00 0.00 88 1023.5
20171121011528 35 80 0.9 0.9 0.00 0.00 0.00 88 1023.5
20171121011028 35 80 0.0 0.0 0.00 0.00 0.00 88 1023.5
20171121010526 35 80 0.0 0.9 0.00 0.00 0.00 86 1023.5
20171121010025 35 80 0.0 0.9 0.00 0.00 0.00 87 1023.9
20171121005524 35 80 0.0 0.9 0.00 0.00 0.00 86 1023.5
20171121005023 35 80 0.9 0.9 0.00 0.00 0.00 87 1023.9
20171121004522 35 88 0.9 0.9 0.00 0.00 0.00 88 1023.5
20171121004021 35 89 0.9 0.9 0.00 0.00 0.00 88 1023.5
20171121003519 35 89 0.9 0.9 0.00 0.00 0.00 88 1023.5
20171121003018 35 89 0.9 0.9 0.00 0.00 0.00 87 1023.5
20171121002516 36 89 0.9 0.9 0.00 0.00 0.00 87 1023.5
20171121002015 36 89 0.9 0.9 0.00 0.00 0.00 87 1023.5
20171121001514 36 89 0.9 0.9 0.00 0.00 0.00 85 1023.9
20171121001013 36 89 0.9 0.9 0.00 0.00 0.00 84 1023.9
20171121000512 37 89 0.0 0.9 0.00 0.00 0.00 85 1023.5
20171121000012 37 89 0.0 0.9 0.00 0.00 0.00 85 1023.5
20171120235511 37 89 0.9 0.9 0.00 0.00 0.00 85 1023.5
20171120235010 36 89 0.9 0.9 0.00 0.00 0.00 85 1023.9
20171120234508 37 89 0.9 0.9 0.00 0.00 0.00 85 1023.5
20171120233936 37 115 0.9 0.9 0.00 0.00 0.00 85 1023.5
20171120233435 37 115 0.0 0.9 0.00 0.00 0.00 85 1023.5
20171120232934 37 134 0.9 0.9 0.00 0.00 0.00 84 1023.5
20171120232433 37 139 0.0 0.9 0.00 0.00 0.00 83 1023.5
20171120231932 38 139 0.9 0.9 0.00 0.00 0.00 83 1023.5
20171120231432 38 138 0.9 0.9 0.00 0.00 0.00 83 1023.5
20171120230931 38 138 0.0 0.9 0.00 0.00 0.00 82 1023.5
20171120230429 39 139 0.0 0.9 0.00 0.00 0.00 81 1023.5
20171120225929 39 139 0.0 0.9 0.00 0.00 0.00 81 1023.5
20171120225428 40 147 0.0 0.0 0.00 0.00 0.00 80 1023.5
20171120224927 40 146 0.0 0.0 0.00 0.00 0.00 78 1023.5
20171120224426 41 146 0.0 0.0 0.00 0.00 0.00 77 1023.5
20171120223925 42 146 0.0 0.0 0.00 0.00 0.00 76 1023.5
20171120223719 42 146 0.0 0.0 0.00 0.00 0.00 75 1023.5
20171120221328 46 146 0.0 0.9 0.00 0.00 0.00 70 1023.5
20171120220828 47 146 0.0 0.9 0.00 0.00 0.00 68 1023.9
20171120220328 48 146 0.0 0.0 0.00 0.00 0.00 64 1023.9
20171120215825 49 146 0.0 0.0 0.00 0.00 0.00 61 1023.9
20171120215324 49 146 0.0 0.0 0.00 0.00 0.00 57 1023.9
20171120214823 50 146 0.0 0.9 0.00 0.00 0.00 56 1023.9
20171120214322 51 146 0.0 0.9 0.00 0.00 0.00 56 1024.2
20171120213822 52 146 0.0 0.9 0.00 0.00 0.00 50 1023.9
20171120213321 52 143 0.0 0.9 0.00 0.00 0.00 51 1023.9
20171120212820 52 167 0.0 2.6 0.00 0.00 0.00 48 1023.9
20171120212319 52 166 0.0 3.5 0.00 0.00 0.00 50 1024.2
20171120211819 52 225 0.9 3.5 0.00 0.00 0.00 51 1024.2
20171120211318 52 139 1.7 2.6 0.00 0.00 0.00 49 1024.2
20171120210818 52 216 0.9 2.6 0.00 0.00 0.00 49 1024.2
20171120210317 52 239 0.0 2.6 0.00 0.00 0.00 48 1024.2
20171120205816 52 202 1.7 2.6 0.00 0.00 0.00 49 1024.2